Weather History for Newark Heath, OH

Change the Weather History Date:

Wednesday, November 30, 2011

  Actual Average Record
Temperature  
Mean Temperature 34 °F -  
Max Temperature 39 °F 44 °F 66 °F (1991)
Min Temperature 25 °F 30 °F -4 °F (1958)
Degree Days  
Heating Degree Days 30    
Moisture  
Dew Point 29 °F    
Average Humidity 82    
Maximum Humidity 96    
Minimum Humidity 60    
Precipitation  
Precipitation 0.00 in - - ()
Sea Level Pressure  
Sea Level Pressure 29.90 in    
Wind  
Wind Speed 11 mph (West)    
Max Wind Speed 16 mph    
Max Gust Speed 24 mph    
Visibility 9 miles    
Events Snow    
Averages and records for this station are not official NWS values.
T = Trace of Precipitation, MM = Missing Value Source: NWS Daily Summary

Daily Weather History Graph

Daily Weather History Graph

Search for Another Location

Airport:

Trip Planner

Search our weather history database for the weather conditions in past years. The results will help you decide how hot, cold, wet, or windy it might be!

Date:

Astronomy

Nov. 30, 2011 Rise Set
Actual Time 7:31 AM EST 5:05 PM EST
Civil Twilight 7:01 AM EST 5:35 PM EST
Nautical Twilight 6:27 AM EST 6:08 PM EST
Astronomical Twilight 5:55 AM EST 6:41 PM EST
Moon 11:48 AM EST (11/30) 11:01 PM EST (11/30)
Length of Visible Light 10h 34m
Length of Day
9h 34m
Waxing Crescent, 33% of the Moon is Illuminated
Nov 30
Waxing Crescent
Dec 2
First Quarter
Dec 10
Full
Dec 17
Last Quarter
Dec 24
New

Hourly Weather History & Observations

Time (EST) Temp. Windchill Dew Point Humidity Pressure Visibility Wind Dir Wind Speed Gust Speed Precip Events Conditions
12:54 AM 35.1 °F 26.9 °F 32.0 °F 89% 29.65 in 9.0 mi WSW 11.5 mph - N/A   Overcast
1:20 AM 35.6 °F 29.2 °F 33.8 °F 93% 29.63 in 9.0 mi WSW 8.1 mph 17.3 mph 0.00 in   Overcast
1:27 AM 35.6 °F 28.6 °F 32.0 °F 87% 29.64 in 9.0 mi SW 9.2 mph - 0.00 in   Overcast
1:54 AM 35.1 °F 27.9 °F 33.1 °F 92% 29.66 in 10.0 mi WSW 9.2 mph - 0.00 in   Overcast
2:12 AM 35.6 °F 27.5 °F 32.0 °F 87% 29.65 in 10.0 mi WSW 11.5 mph - 0.00 in   Overcast
2:22 AM 35.6 °F 26.6 °F 32.0 °F 87% 29.65 in 10.0 mi West 13.8 mph - 0.00 in   Overcast
2:46 AM 35.6 °F 27.1 °F 32.0 °F 87% 29.66 in 10.0 mi West 12.7 mph - 0.00 in   Overcast
2:54 AM 35.1 °F 26.4 °F 32.0 °F 89% 29.69 in 8.0 mi West 12.7 mph 19.6 mph 0.00 in   Overcast
3:12 AM 35.6 °F 26.6 °F 32.0 °F 87% 29.67 in 10.0 mi West 13.8 mph 19.6 mph N/A   Overcast
3:54 AM 34.0 °F 24.2 °F 33.1 °F 96% 29.72 in 8.0 mi West 15.0 mph 23.0 mph 0.00 in Snow Light Snow
4:54 AM 34.0 °F 24.6 °F 32.0 °F 92% 29.76 in 5.0 mi West 13.8 mph - 0.00 in   Overcast
5:54 AM 33.1 °F 22.6 °F 32.0 °F 96% 29.80 in 6.0 mi WNW 16.1 mph - N/A   Overcast
6:04 AM 33.8 °F 23.9 °F 30.2 °F 87% 29.79 in 10.0 mi WNW 15.0 mph 21.9 mph N/A   Overcast
6:54 AM 33.1 °F 24.4 °F 30.9 °F 92% 29.84 in 7.0 mi West 11.5 mph 21.9 mph N/A   Overcast
7:28 AM 33.8 °F 23.9 °F 28.4 °F 81% 29.84 in 10.0 mi WNW 15.0 mph 23.0 mph 0.00 in   Overcast
7:54 AM 33.1 °F 24.4 °F 28.9 °F 85% 29.88 in 10.0 mi West 11.5 mph - 0.00 in   Overcast
8:54 AM 34.0 °F 26.0 °F 28.0 °F 79% 29.89 in 10.0 mi West 10.4 mph - N/A   Mostly Cloudy
9:06 AM 33.8 °F 23.9 °F 28.4 °F 81% 29.89 in 10.0 mi WNW 15.0 mph 20.7 mph N/A   Mostly Cloudy
9:21 AM 33.8 °F 23.9 °F 28.4 °F 81% 29.90 in 10.0 mi West 15.0 mph - N/A   Mostly Cloudy
9:54 AM 33.1 °F 23.4 °F 27.0 °F 78% 29.94 in 10.0 mi West 13.8 mph 24.2 mph N/A   Overcast
10:54 AM 33.1 °F 22.6 °F 26.1 °F 75% 29.99 in 10.0 mi WNW 16.1 mph 21.9 mph N/A   Overcast
11:54 AM 35.1 °F 26.9 °F 27.0 °F 72% 30.00 in 10.0 mi WNW 11.5 mph - N/A   Mostly Cloudy
12:19 PM 37.4 °F 29.3 °F 26.6 °F 65% 29.98 in 10.0 mi WNW 12.7 mph 20.7 mph N/A   Scattered Clouds
12:54 PM 37.9 °F 29.6 °F 26.1 °F 62% 29.99 in 10.0 mi West 13.8 mph - N/A   Partly Cloudy
1:54 PM 39.0 °F 31.0 °F 27.0 °F 62% 30.00 in 10.0 mi West 13.8 mph - N/A   Clear
2:54 PM 39.9 °F 32.9 °F 27.0 °F 60% 30.02 in 10.0 mi West 11.5 mph - N/A   Clear
3:54 PM 39.9 °F 33.9 °F 27.0 °F 60% 30.05 in 10.0 mi West 9.2 mph - N/A   Clear
4:54 PM 37.9 °F 34.4 °F 28.0 °F 68% 30.09 in 10.0 mi WNW 4.6 mph - N/A   Clear
5:54 PM 35.1 °F 31.0 °F 28.0 °F 76% 30.12 in 10.0 mi WSW 4.6 mph - N/A   Clear
6:54 PM 34.0 °F 31.0 °F 27.0 °F 75% 30.15 in 10.0 mi WSW 3.5 mph - N/A   Clear
7:54 PM 30.9 °F 26.2 °F 26.1 °F 82% 30.17 in 10.0 mi West 4.6 mph - N/A   Clear
9:07 PM 30.2 °F 26.7 °F 26.6 °F 86% 30.17 in 10.0 mi West 3.5 mph - N/A   Mostly Cloudy
9:31 PM 30.2 °F 26.7 °F 26.6 °F 86% 30.17 in 10.0 mi WSW 3.5 mph - N/A   Scattered Clouds
10:54 PM 30.0 °F 25.2 °F 27.0 °F 88% 30.21 in 9.0 mi SSW 4.6 mph - N/A   Clear
11:54 PM 25.0 °F 20.7 °F 23.0 °F 92% 30.23 in 5.0 mi West 3.5 mph - N/A   Clear